Regional Weather Roundup
Issued by NWS Goodland, KS

Home | Current Version | Previous Version | Graphics & Text | Print | Product List | Glossary On
Versions: 1 2 3 4 5 6 7 8 9 10 11 12 13 14 15 16 17 18 19 20 21 22 23 24 25 26 27 28 29 30 31 32 33 34 35 36 37 38 39 40 41 42 43 44 45 46 47 48 49 50
000
ASUS43 KGLD 061659
RWRGLD

GOODLAND FORECAST AREA HOURLY WEATHER ROUNDUP
NATIONAL WEATHER SERVICE GOODLAND KS
1100 AM MDT MON JUL 06 2015

...OFFICIAL OBSERVATIONS...

CITY           SKY/WX    TMP DP  RH WIND       PRES   REMARKS
GOODLAND KS    CLOUDY    64  60  87 N22G32    30.13R
HILL CITY KS   CLOUDY    72  66  81 N20G29    30.00R
IMPERIAL NEB   CLOUDY    67  56  67 N16G25    30.15R
MCCOOK NEB     CLOUDY    70  60  70 N23G30    30.07R
AKRON CO       CLOUDY    61  56  83 N18       30.23R
BURLINGTON CO  CLOUDY    65  60  84 N18G28    30.17R
LIMON CO       CLOUDY    60  57  89 N16G23    30.25R
$$

...UNOFFICIAL OBSERVATIONS...

CITY           SKY/WX    TMP DP  RH WIND       PRES   REMARKS
COLBY KS       CLOUDY    66  64  94 N16G26    30.10R
GOVE KS          N/A     72  32  23 MISG        N/A
NORTON KS      CLOUDY    70  61  73 N18G30    30.02R
SHARON SPRINGS   N/A     66  61  84 N16G29      N/A
KIT CARSON CO    N/A     67  60  77 MISG        N/A
YUMA CO          N/A     65  58  79 N12G20      N/A
$$


USA.gov is the U.S. government's official web portal to all federal, state and local government web resources and services.